[[{"header":{"parameterUnit":"m.s-1","parameterCategory":1,"la1":30.2991,"la2":30.254,"lo1":-89.0895,"lo2":-89.0444,"dy":0.0017,"dx":0.0017,"nx":28,"ny":28,"refTime":"2023-10-16T21:00:00:Z","depth":0,"parameterNumber":2,"parameterNumberName":"U-component_of_WINDS"},"data":[0,0,0,0,0,0,0,0,0,0,0,0,0,0,0,0,0,0,0,0,0,0,0,0,0,0,0,0,0,0,0,0,0,0,0,0,0,0,0,0,0,0,0,0,0,0,0,0,0,0,0,0,0,0,0,0,0,0,-0.9883,-0.9884,0,-0.9933,-0.9933,-0.9934,-0.9952,-0.9952,-0.9952,-0.9952,-1.0006,-1.0007,-1.0009,0,0,0,0,0,0,0,0,0,0,0,0,0,-0.9808,-0.9809,-0.9883,-0.9884,-0.9884,-0.9933,-0.9933,-0.9934,-0.9952,-0.9952,-0.9952,-0.9952,-1.0005,-1.0007,-1.0009,0,0,0,0,0,0,0,0,0,0,0,0,0,-0.9847,-0.981,-0.9883,-0.9899,-0.9901,-0.9933,-0.9934,-0.9934,-0.9952,-0.9952,-0.9952,-0.9952,-1.0004,-1.0007,-1.0009,-1.0029,0,0,-1.0016,-1.0017,0,0,0,0,0,0,0,0,-0.9845,-0.985,-0.9896,-0.9898,-0.99,-0.9936,-0.9927,-0.9966,-0.9952,-0.9933,-0.9952,-0.9952,-0.9983,-0.9987,-0.9997,-1.0031,-1.0034,-1.0017,-1.0018,-1.0019,-1.002,0,0,0,0,0,0,0,-0.9842,-0.9848,-0.9903,-0.9897,-0.9899,-0.9905,-0.9911,-0.9934,-0.9959,-0.9935,-0.9936,-0.9942,-0.9984,-0.9995,-0.9998,-1.0035,-1.0016,-1.0019,-1.002,-1.0021,-1.009,-1.009,0,0,0,0,0,0,-0.9836,-0.9846,-0.9901,-0.9904,-0.9871,-0.9907,-0.9913,-0.9925,-0.9959,-0.9963,-0.9942,-0.9942,-0.9991,-0.9996,-1.0,-1.0027,-1.0019,-1.0021,-1.0023,-1.009,-1.009,-1.0091,0,0,0,0,0,0,-0.9835,-0.9841,-0.9899,-0.9875,-0.9883,-0.9908,-0.9922,-0.9926,-0.9937,-0.9964,-0.9969,-0.9948,-0.9991,-0.9997,-1.0022,-1.0029,-1.0022,-1.0024,-1.0089,-1.009,-1.009,-1.0079,0,0,0,0,0,0,-0.9832,-0.984,-0.9847,-0.9875,-0.9884,-0.9919,-0.9922,-0.9927,-0.994,-0.9942,-0.9971,-0.9976,-0.9991,-1.0018,-1.0024,-1.0032,-1.0026,-1.0089,-1.0089,-1.009,-1.0078,-1.0079,-1.0079,0,0,0,0,0,-0.983,-0.9842,-0.9847,-0.9854,-0.9893,-0.9919,-0.9924,-0.9941,-0.9941,-0.9948,-0.9966,-0.9975,-1.0027,-1.0021,-1.0028,-1.0036,-1.0088,-1.0089,-1.009,-1.0078,-1.0079,-1.0079,0,0,0,0,0,0,-0.9814,-0.9846,-0.9852,-0.9874,-0.9893,-0.9922,-0.9932,-0.994,-0.9961,-0.9961,-0.9982,-0.9989,-1.0012,-1.0027,-1.0019,-1.0058,-1.0058,-1.0061,-1.0047,-1.0048,-1.0048,-1.0044,-1.0028,0,0,0,0,0,-0.9813,-0.9831,-0.9858,-0.9874,-0.9884,-0.9906,-0.9918,-0.9929,-0.9951,-0.996,-0.9979,-1.0001,-1.0023,-1.0036,-1.0057,-1.0081,-1.0089,-1.0091,-1.0091,-1.0091,-1.0093,-1.0108,-1.0109,-1.0093,-1.0093,-1.0093,0,0,-0.9812,-0.9831,-0.9841,-0.9872,-0.9888,-0.9907,-0.9913,-0.9932,-0.9947,-0.9963,-0.9987,-1.0003,-1.0029,-1.0053,-1.0065,-1.0066,-1.0099,-1.0092,-1.0092,-1.0094,-1.0109,-1.011,-1.0111,-1.0094,-1.0094,-1.0094,0,0,-0.9818,-0.9834,-0.985,-0.9867,-0.9892,-0.9907,-0.9911,-0.9938,-0.9949,-0.9974,-0.9987,-1.0005,-1.0042,-1.006,-1.0074,-1.0089,-1.0098,-1.0096,-1.0097,-1.0111,-1.0112,-1.0114,-1.012,-1.0122,-1.0098,-1.0098,-1.0098,0,-0.9813,-0.984,-0.9857,-0.9876,-0.989,-0.9905,-0.9923,-0.9938,-0.9969,-0.9979,-0.998,-1.0027,-1.0045,-1.0075,-1.0079,-1.009,-1.0096,-1.0092,-1.0111,-1.0112,-1.0114,-1.0119,-1.0122,-1.0097,-1.0097,-1.0097,-1.0097,0,-0.9833,-0.9852,-0.9862,-0.9891,-0.9906,-0.9924,-0.9946,-0.9959,-0.997,-0.9986,-1.0012,-1.0035,-1.0062,-1.007,-1.0081,-1.0102,-1.0102,-1.0106,-1.0107,-1.0114,-1.012,-1.0123,-1.0096,-1.0097,-1.0097,-1.0097,0,0,-0.9829,-0.9869,-0.9872,-0.9886,-0.9915,-0.9931,-0.9951,-0.9976,-0.9988,-1.001,-1.0027,-1.0059,-1.0064,-1.008,-1.0093,-1.0106,-1.0118,-1.0109,-1.011,-1.011,-1.0144,-1.014,-1.0142,-1.0124,-1.0125,-1.0125,-1.0142,0,-0.984,-0.9873,-0.9891,-0.9918,-0.9936,-0.9952,-0.997,-0.9991,-1.0006,-1.0026,-1.0044,-1.0066,-1.007,-1.008,-1.0094,-1.0113,-1.0125,-1.0112,-1.0142,-1.0143,-1.0134,-1.0145,-1.014,-1.0154,-1.0144,-1.0144,-1.0145,0,-0.9855,-0.9876,-0.9905,-0.9933,-0.9942,-0.9957,-0.9982,-1.0,-1.0025,-1.0036,-1.0055,-1.0068,-1.0091,-1.0091,-1.0124,-1.0115,-1.0129,-1.0141,-1.0142,-1.0144,-1.0143,-1.0148,-1.0159,-1.0161,-1.0149,-1.0148,-1.0148,0,-0.985,-0.9886,-0.9907,-0.9919,-0.9953,-0.9963,-0.9978,-1.0003,-1.0017,-1.0041,-1.0051,-1.0077,-1.0091,-1.0111,-1.0132,-1.013,-1.0163,-1.0165,-1.0174,-1.0173,-1.0179,-1.0178,-1.0192,-1.0188,-1.0188,-1.0188,-1.0188,0,-0.9859,-0.9876,-0.9906,-0.9919,-0.9939,-0.996,-0.998,-0.9996,-1.0019,-1.0037,-1.0053,-1.007,-1.0097,-1.0118,-1.0134,-1.0159,-1.0166,-1.0176,-1.018,-1.0174,-1.0173,-1.0183,-1.0182,-1.0189,-1.0189,-1.0189,-1.0189,0,-0.9856,-0.9876,-0.9901,-0.9932,-0.994,-0.9953,-0.998,-0.9995,-1.0012,-1.0035,-1.0042,-1.0069,-1.0095,-1.0118,-1.0152,-1.0163,-1.0189,-1.0194,-1.018,-1.0182,-1.019,-1.0189,-1.021,-1.0215,-1.0208,-1.0208,-1.0208,0,-0.986,-0.9874,-0.9905,-0.9918,-0.9933,-0.9953,-0.9968,-0.999,-1.0006,-1.0036,-1.0047,-1.0074,-1.0096,-1.0137,-1.0161,-1.0188,-1.0194,-1.02,-1.0198,-1.0192,-1.0194,-1.0193,-1.0195,-1.0199,-1.0199,-1.0199,-1.0199,0,-0.9866,-0.9875,-0.9896,-0.992,-0.9938,-0.9958,-0.9979,-0.9989,-1.0016,-1.0033,-1.0058,-1.0076,-1.0111,-1.0138,-1.0168,-1.0185,-1.0197,-1.02,-1.0203,-1.0197,-1.0188,-1.0193,-1.0179,-1.0199,-1.0199,-1.0199,-1.0199,-1.0199,-0.9867,-0.988,-0.9904,-0.9927,-0.9945,-0.9965,-0.998,-0.9999,-1.0021,-1.005,-1.0063,-1.0089,-1.0116,-1.0157,-1.0175,-1.0197,-1.0199,-1.0204,-1.0205,-1.0206,-1.0205,-1.0185,-1.0203,-1.0203,-1.0203,-1.0203,-1.0203,0,-0.9873,-0.989,-0.991,-0.9939,-0.9958,-0.9967,-0.9991,-1.0006,-1.0029,-1.0052,-1.0074,-1.0105,-1.0132,-1.0158,-1.0186,-1.0199,-1.0206,-1.0206,-1.0205,-1.0209,-1.0201,-1.0195,-1.0201,-1.0201,-1.0201,-1.0201,-1.0201,-1.0201,-0.9878,-0.9901,-0.9914,-0.9946,-0.9964,-0.9989,-1.0002,-1.0021,-1.004,-1.0073,-1.0095,-1.0111,-1.0137,-1.0167,-1.0193,-1.02,-1.021,-1.0209,-1.0218,-1.021,-1.021,-1.0209,-1.0204,-1.0211,-1.0211,-1.0224,-1.0224,-1.0224]},{"header":{"parameterUnit":"m.s-1","parameterCategory":1,"la1":30.2991,"la2":30.254,"lo1":-89.0895,"lo2":-89.0444,"dy":0.0017,"dx":0.0017,"nx":28,"ny":28,"refTime":"2023-10-16T21:00:00:Z","depth":0,"parameterNumber":3,"parameterNumberName":"V-component_of_WINDS"},"data":[0,0,0,0,0,0,0,0,0,0,0,0,0,0,0,0,0,0,0,0,0,0,0,0,0,0,0,0,0,0,0,0,0,0,0,0,0,0,0,0,0,0,0,0,0,0,0,0,0,0,0,0,0,0,0,0,0,0,3.5553,3.5553,0,3.5482,3.5481,3.548,3.5479,3.548,3.548,3.5481,3.5401,3.5398,3.5395,0,0,0,0,0,0,0,0,0,0,0,0,0,3.5682,3.568,3.5553,3.5553,3.5552,3.5482,3.5481,3.548,3.5478,3.548,3.5481,3.5482,3.5402,3.5399,3.5395,0,0,0,0,0,0,0,0,0,0,0,0,0,3.562,3.5679,3.5554,3.5543,3.5541,3.5482,3.5481,3.548,3.5478,3.548,3.5481,3.5482,3.5403,3.5399,3.5395,3.534,0,0,3.5381,3.5379,0,0,0,0,0,0,0,0,3.5624,3.5615,3.5545,3.5543,3.5541,3.5491,3.5497,3.5433,3.5478,3.5502,3.5481,3.5483,3.5429,3.5423,3.5406,3.5336,3.5333,3.5381,3.5378,3.5376,3.5375,0,0,0,0,0,0,0,3.5628,3.5618,3.5525,3.5544,3.5542,3.5539,3.5532,3.5485,3.5459,3.55,3.55,3.5492,3.5429,3.5411,3.5404,3.5332,3.5381,3.5377,3.5374,3.5372,3.5213,3.5212,0,0,0,0,0,0,3.5635,3.5622,3.5527,3.5523,3.5587,3.5536,3.5528,3.5505,3.5459,3.5454,3.549,3.5492,3.5418,3.541,3.5402,3.5335,3.5376,3.5372,3.5369,3.5215,3.5213,3.5211,0,0,0,0,0,0,3.5638,3.5627,3.553,3.5572,3.556,3.5532,3.5507,3.5503,3.5486,3.5452,3.5447,3.5477,3.5418,3.5408,3.5356,3.5332,3.537,3.5366,3.5216,3.5214,3.5212,3.5201,0,0,0,0,0,0,3.5642,3.5628,3.5608,3.5572,3.5558,3.5487,3.5506,3.5501,3.5479,3.548,3.5439,3.5433,3.5419,3.5363,3.5351,3.5327,3.5362,3.5218,3.5215,3.5213,3.5203,3.5198,3.5194,0,0,0,0,0,3.5646,3.5606,3.5607,3.5596,3.5533,3.5486,3.5478,3.5464,3.5477,3.5456,3.5435,3.5434,3.5337,3.5357,3.5345,3.5318,3.522,3.5216,3.5213,3.5205,3.5199,3.5194,0,0,0,0,0,0,3.5638,3.5601,3.5602,3.555,3.5521,3.5486,3.5459,3.5458,3.5424,3.5426,3.5408,3.5399,3.5347,3.5327,3.5351,3.5263,3.5279,3.5273,3.5278,3.5272,3.5268,3.5273,3.5359,0,0,0,0,0,3.5631,3.5598,3.5567,3.5523,3.5509,3.5487,3.5466,3.5458,3.5427,3.5414,3.5389,3.5357,3.5319,3.5294,3.5258,3.52,3.5191,3.5176,3.5171,3.5168,3.5162,3.513,3.5123,3.52,3.52,3.52,0,0,3.5614,3.559,3.5569,3.5521,3.5498,3.5463,3.5476,3.5438,3.5411,3.5407,3.5358,3.5338,3.5301,3.5246,3.5221,3.5228,3.5139,3.5163,3.5161,3.5157,3.5126,3.5119,3.5112,3.5197,3.5198,3.5198,0,0,3.5565,3.5544,3.5506,3.5483,3.545,3.5435,3.5426,3.5391,3.5378,3.5329,3.5325,3.5292,3.5227,3.5201,3.5179,3.5122,3.512,3.511,3.5087,3.5056,3.505,3.5044,3.5023,3.5016,3.5105,3.5105,3.5105,0,3.5548,3.5497,3.5486,3.5448,3.5426,3.5424,3.5384,3.5362,3.5317,3.5301,3.531,3.523,3.5205,3.5144,3.513,3.5113,3.51,3.5115,3.5052,3.5046,3.5041,3.5021,3.5013,3.5104,3.5104,3.5104,3.5104,0,3.5477,3.5441,3.5414,3.5374,3.5349,3.531,3.5291,3.5267,3.5261,3.5245,3.5194,3.5164,3.5122,3.5107,3.51,3.5045,3.505,3.5056,3.5072,3.5033,3.5014,3.5006,3.5103,3.5103,3.5103,3.5104,0,0,3.542,3.5376,3.5366,3.5347,3.531,3.5281,3.5242,3.5203,3.5182,3.5151,3.5117,3.5063,3.5068,3.5043,3.5033,3.5006,3.4963,3.5015,3.5014,3.5006,3.4899,3.4895,3.4887,3.4962,3.496,3.4959,3.4902,0,3.5368,3.5301,3.529,3.523,3.5196,3.5194,3.516,3.5132,3.5116,3.5084,3.5065,3.5027,3.5037,3.5022,3.4995,3.4974,3.4941,3.4978,3.4928,3.4926,3.4937,3.4877,3.4872,3.482,3.4895,3.4894,3.4893,0,3.5297,3.5267,3.5205,3.5173,3.5158,3.5128,3.5091,3.5061,3.5029,3.5019,3.4993,3.4986,3.4943,3.4962,3.4903,3.4928,3.4907,3.4893,3.4891,3.4885,3.4907,3.4869,3.4804,3.4796,3.4881,3.4882,3.4883,0,3.5262,3.5206,3.5161,3.5146,3.5107,3.5086,3.5068,3.5038,3.5016,3.4983,3.4968,3.4929,3.4908,3.4878,3.486,3.4876,3.4802,3.4819,3.4791,3.4792,3.4775,3.4776,3.4705,3.4762,3.4762,3.4762,3.4763,0,3.5205,3.5166,3.5145,3.5118,3.5075,3.5062,3.5019,3.5001,3.4975,3.4942,3.4937,3.4906,3.4886,3.4852,3.4838,3.479,3.478,3.477,3.4767,3.477,3.4772,3.4756,3.4759,3.476,3.4761,3.4761,3.4762,0,3.5158,3.5143,3.5094,3.5063,3.5054,3.5023,3.4995,3.4967,3.4952,3.4911,3.49,3.4875,3.4835,3.4815,3.4764,3.4755,3.4701,3.47,3.4712,3.4711,3.4684,3.4687,3.46,3.4588,3.4653,3.4653,3.4652,0,3.5122,3.5093,3.5059,3.5039,3.5021,3.4988,3.4965,3.4951,3.4927,3.4889,3.4866,3.4826,3.4793,3.4729,3.4704,3.4665,3.4663,3.4635,3.4657,3.4662,3.4662,3.4664,3.4661,3.4631,3.4631,3.463,3.463,0,3.506,3.5054,3.5023,3.499,3.4964,3.4936,3.4908,3.4891,3.4872,3.4845,3.4805,3.478,3.473,3.4689,3.4649,3.4629,3.4625,3.4623,3.4615,3.4618,3.4627,3.4621,3.4702,3.4625,3.4626,3.4626,3.4626,3.4626,3.5018,3.4992,3.4965,3.493,3.4908,3.4883,3.4856,3.4838,3.4805,3.4764,3.4757,3.4715,3.4683,3.4629,3.4607,3.4573,3.4578,3.4566,3.4563,3.456,3.4559,3.4633,3.4565,3.4565,3.4565,3.4565,3.4565,0,3.4955,3.4938,3.4907,3.487,3.4842,3.4844,3.4814,3.479,3.4754,3.4725,3.4694,3.4648,3.4609,3.4583,3.4543,3.452,3.4518,3.451,3.4511,3.4507,3.4555,3.4567,3.4513,3.4513,3.4513,3.4513,3.4513,3.4513,3.492,3.4877,3.4868,3.4813,3.4795,3.4755,3.4738,3.4714,3.4692,3.4641,3.461,3.4594,3.4566,3.4524,3.4488,3.4481,3.4466,3.4459,3.4452,3.4498,3.4503,3.4508,3.4519,3.4456,3.4456,3.4406,3.4405,3.4405]}]]